Time,TemperatureF,DewpointF,PressureIn,WindDirection,WindDirectionDegrees,WindSpeedMPH,WindSpeedGustMPH,Humidity,HourlyPrecipIn,Conditions,Clouds,dailyrainin,SoftwareType,DateUTC
2015-07-07 00:04:00,68.0,66.2,30.08,WSW,257,1.0,8.0,94,0.00,,,0.00,Wunderground v.1.15,2015-07-07 04:04:00,
2015-07-07 00:10:00,68.1,66.0,30.08,West,266,2.0,8.0,93,0.00,,,0.00,Wunderground v.1.15,2015-07-07 04:10:00,
2015-07-07 00:16:00,68.2,66.1,30.08,WSW,254,1.0,8.0,93,0.00,,,0.00,Wunderground v.1.15,2015-07-07 04:16:00,
2015-07-07 00:22:00,68.2,65.8,30.08,West,263,1.0,8.0,92,0.00,,,0.00,Wunderground v.1.15,2015-07-07 04:22:00,
2015-07-07 00:28:00,68.2,65.8,30.08,West,260,1.0,8.0,92,0.00,,,0.00,Wunderground v.1.15,2015-07-07 04:28:00,
2015-07-07 00:34:00,68.2,65.8,30.08,SW,236,1.0,8.0,92,0.00,,,0.00,Wunderground v.1.15,2015-07-07 04:34:00,
2015-07-07 00:40:00,68.3,65.6,30.08,West,279,1.0,1.0,91,0.00,,,0.00,Wunderground v.1.15,2015-07-07 04:40:00,
2015-07-07 00:46:00,68.3,65.6,30.07,West,263,1.0,8.0,91,0.00,,,0.00,Wunderground v.1.15,2015-07-07 04:46:00,
2015-07-07 00:52:00,68.3,65.6,30.08,WSW,242,1.0,8.0,91,0.00,,,0.00,Wunderground v.1.15,2015-07-07 04:52:00,
2015-07-07 00:58:00,68.4,65.7,30.08,West,263,1.0,8.0,91,0.00,,,0.00,Wunderground v.1.15,2015-07-07 04:58:00,
2015-07-07 01:04:00,68.4,65.7,30.08,West,265,1.0,8.0,91,0.00,,,0.00,Wunderground v.1.15,2015-07-07 05:04:00,
2015-07-07 01:10:00,68.4,65.7,30.08,West,268,2.0,2.0,91,0.00,,,0.00,Wunderground v.1.15,2015-07-07 05:10:00,
2015-07-07 01:16:00,68.4,65.7,30.08,NW,309,2.0,8.0,91,0.00,,,0.00,Wunderground v.1.15,2015-07-07 05:16:00,
2015-07-07 01:22:00,68.3,65.6,30.07,WNW,290,2.0,8.0,91,0.00,,,0.00,Wunderground v.1.15,2015-07-07 05:22:00,
2015-07-07 01:28:00,68.3,65.6,30.07,WNW,286,1.0,8.0,91,0.00,,,0.00,Wunderground v.1.15,2015-07-07 05:28:00,
2015-07-07 01:34:00,68.3,65.6,30.07,WSW,257,1.0,8.0,91,0.00,,,0.00,Wunderground v.1.15,2015-07-07 05:34:00,
2015-07-07 01:40:00,68.3,65.6,30.07,West,275,1.0,8.0,91,0.00,,,0.00,Wunderground v.1.15,2015-07-07 05:40:00,
2015-07-07 01:46:00,68.3,65.6,30.06,WNW,294,1.0,8.0,91,0.00,,,0.00,Wunderground v.1.15,2015-07-07 05:46:00,
2015-07-07 01:52:00,68.1,65.4,30.06,WNW,294,0.0,8.0,91,0.00,,,0.00,Wunderground v.1.15,2015-07-07 05:52:00,
2015-07-07 01:58:00,67.9,65.5,30.06,WNW,294,0.0,8.0,92,0.00,,,0.00,Wunderground v.1.15,2015-07-07 05:58:00,
2015-07-07 02:04:00,67.7,65.3,30.06,WNW,294,0.0,8.0,92,0.00,,,0.00,Wunderground v.1.15,2015-07-07 06:04:00,
2015-07-07 02:10:00,67.6,65.2,30.06,WNW,294,0.0,8.0,92,0.00,,,0.00,Wunderground v.1.15,2015-07-07 06:10:00,
2015-07-07 02:16:00,67.4,65.3,30.06,West,267,0.0,8.0,93,0.00,,,0.00,Wunderground v.1.15,2015-07-07 06:16:00,
2015-07-07 02:22:00,67.4,65.6,30.06,West,281,0.0,8.0,94,0.00,,,0.00,Wunderground v.1.15,2015-07-07 06:22:00,
2015-07-07 02:28:00,67.4,65.6,30.06,West,281,0.0,8.0,94,0.00,,,0.00,Wunderground v.1.15,2015-07-07 06:28:00,
2015-07-07 02:34:00,67.2,65.4,30.05,West,281,0.0,8.0,94,0.00,,,0.00,Wunderground v.1.15,2015-07-07 06:34:00,
2015-07-07 02:40:00,67.1,65.3,30.05,West,281,0.0,8.0,94,0.00,,,0.00,Wunderground v.1.15,2015-07-07 06:40:00,
2015-07-07 02:46:00,67.1,65.3,30.05,West,281,0.0,8.0,94,0.00,,,0.00,Wunderground v.1.15,2015-07-07 06:46:00,
2015-07-07 02:52:00,67.0,65.5,30.05,West,279,0.0,8.0,95,0.00,,,0.00,Wunderground v.1.15,2015-07-07 06:52:00,
2015-07-07 02:58:00,67.1,65.6,30.05,WSW,241,1.0,8.0,95,0.00,,,0.00,Wunderground v.1.15,2015-07-07 06:58:00,
2015-07-07 03:04:00,67.3,65.8,30.05,WSW,241,0.0,8.0,95,0.00,,,0.00,Wunderground v.1.15,2015-07-07 07:04:00,
2015-07-07 03:10:00,67.3,65.5,30.05,WSW,241,0.0,8.0,94,0.00,,,0.00,Wunderground v.1.15,2015-07-07 07:10:00,
2015-07-07 03:16:00,67.1,65.3,30.05,WSW,241,0.0,8.0,94,0.00,,,0.00,Wunderground v.1.15,2015-07-07 07:16:00,
2015-07-07 03:22:00,66.9,65.4,30.05,WSW,241,0.0,8.0,95,0.00,,,0.00,Wunderground v.1.15,2015-07-07 07:22:00,
2015-07-07 03:28:00,66.8,65.3,30.05,WSW,241,0.0,8.0,95,0.00,,,0.00,Wunderground v.1.15,2015-07-07 07:28:00,
2015-07-07 03:34:00,66.8,65.6,30.05,West,265,0.0,8.0,96,0.00,,,0.00,Wunderground v.1.15,2015-07-07 07:34:00,
2015-07-07 03:40:00,66.9,65.7,30.05,West,265,0.0,8.0,96,0.00,,,0.00,Wunderground v.1.15,2015-07-07 07:40:00,
2015-07-07 03:46:00,67.1,66.2,30.05,West,265,0.0,8.0,97,0.00,,,0.00,Wunderground v.1.15,2015-07-07 07:46:00,
2015-07-07 03:52:00,67.2,66.3,30.05,West,265,0.0,8.0,97,0.00,,,0.00,Wunderground v.1.15,2015-07-07 07:52:00,
2015-07-07 03:58:00,67.2,66.3,30.04,West,265,0.0,8.0,97,0.00,,,0.00,Wunderground v.1.15,2015-07-07 07:58:00,
2015-07-07 04:04:00,67.1,66.2,30.04,West,265,0.0,8.0,97,0.00,,,0.00,Wunderground v.1.15,2015-07-07 08:04:00,
2015-07-07 04:10:00,67.2,66.3,30.04,West,265,0.0,8.0,97,0.00,,,0.00,Wunderground v.1.15,2015-07-07 08:10:00,
2015-07-07 04:16:00,67.3,66.4,30.04,West,265,1.0,8.0,97,0.00,,,0.00,Wunderground v.1.15,2015-07-07 08:16:00,
2015-07-07 04:22:00,67.4,66.8,30.05,West,265,0.0,8.0,98,0.00,,,0.00,Wunderground v.1.15,2015-07-07 08:22:00,
2015-07-07 04:28:00,67.6,67.0,30.05,West,265,0.0,8.0,98,0.00,,,0.00,Wunderground v.1.15,2015-07-07 08:28:00,
2015-07-07 04:34:00,67.6,67.0,30.05,West,265,0.0,8.0,98,0.00,,,0.00,Wunderground v.1.15,2015-07-07 08:34:00,
2015-07-07 04:40:00,67.6,67.0,30.05,West,265,0.0,8.0,98,0.00,,,0.00,Wunderground v.1.15,2015-07-07 08:40:00,
2015-07-07 04:46:00,67.6,67.0,30.05,West,265,0.0,8.0,98,0.00,,,0.00,Wunderground v.1.15,2015-07-07 08:46:00,
2015-07-07 04:52:00,67.7,67.1,30.05,West,265,1.0,8.0,98,0.00,,,0.00,Wunderground v.1.15,2015-07-07 08:52:00,
2015-07-07 04:58:00,67.7,67.1,30.04,West,265,0.0,8.0,98,0.00,,,0.00,Wunderground v.1.15,2015-07-07 08:58:00,
2015-07-07 05:04:00,67.5,66.9,30.05,West,265,0.0,8.0,98,0.00,,,0.00,Wunderground v.1.15,2015-07-07 09:04:00,
2015-07-07 05:10:00,67.4,66.8,30.05,West,265,1.0,1.0,98,0.00,,,0.00,Wunderground v.1.15,2015-07-07 09:10:00,
2015-07-07 05:16:00,67.3,67.0,30.05,West,265,0.0,8.0,99,0.00,,,0.00,Wunderground v.1.15,2015-07-07 09:16:00,
2015-07-07 05:22:00,67.2,66.9,30.05,West,265,0.0,8.0,99,0.00,,,0.00,Wunderground v.1.15,2015-07-07 09:22:00,
2015-07-07 05:28:00,67.2,66.9,30.05,West,265,0.0,8.0,99,0.00,,,0.00,Wunderground v.1.15,2015-07-07 09:28:00,
2015-07-07 05:34:00,67.2,66.9,30.05,West,265,0.0,8.0,99,0.00,,,0.00,Wunderground v.1.15,2015-07-07 09:34:00,
2015-07-07 05:40:00,67.2,66.9,30.05,West,265,0.0,8.0,99,0.00,,,0.00,Wunderground v.1.15,2015-07-07 09:40:00,
2015-07-07 05:46:00,67.3,67.0,30.05,WNW,288,0.0,8.0,99,0.00,,,0.00,Wunderground v.1.15,2015-07-07 09:46:00,
2015-07-07 05:52:00,67.4,67.4,30.05,WNW,288,0.0,8.0,100,0.00,,,0.00,Wunderground v.1.15,2015-07-07 09:52:00,
2015-07-07 05:58:00,67.4,67.4,30.05,WNW,288,0.0,8.0,100,0.00,,,0.00,Wunderground v.1.15,2015-07-07 09:58:00,
2015-07-07 06:04:00,67.5,67.5,30.05,WNW,288,0.0,8.0,100,0.00,,,0.00,Wunderground v.1.15,2015-07-07 10:04:00,
2015-07-07 06:10:00,67.4,67.4,30.05,WNW,288,0.0,8.0,100,0.00,,,0.00,Wunderground v.1.15,2015-07-07 10:10:00,
2015-07-07 06:16:00,67.3,67.3,30.05,WNW,288,0.0,8.0,100,0.00,,,0.00,Wunderground v.1.15,2015-07-07 10:16:00,
2015-07-07 06:22:00,67.3,67.3,30.04,West,279,0.0,8.0,100,0.00,,,0.00,Wunderground v.1.15,2015-07-07 10:22:00,
2015-07-07 06:28:00,67.2,67.2,30.04,West,271,1.0,8.0,100,0.00,,,0.00,Wunderground v.1.15,2015-07-07 10:28:00,
2015-07-07 06:34:00,67.4,67.4,30.04,West,264,1.0,8.0,100,0.00,,,0.00,Wunderground v.1.15,2015-07-07 10:34:00,
2015-07-07 06:40:00,67.4,67.4,30.04,West,264,0.0,8.0,100,0.00,,,0.00,Wunderground v.1.15,2015-07-07 10:40:00,
2015-07-07 06:46:00,67.6,67.6,30.04,West,263,0.0,8.0,100,0.00,,,0.00,Wunderground v.1.15,2015-07-07 10:46:00,
2015-07-07 06:52:00,67.7,67.7,30.04,West,263,0.0,8.0,100,0.00,,,0.00,Wunderground v.1.15,2015-07-07 10:52:00,
2015-07-07 06:58:00,67.8,67.8,30.04,West,263,0.0,8.0,100,0.00,,,0.00,Wunderground v.1.15,2015-07-07 10:58:00,
2015-07-07 07:04:00,68.0,68.0,30.04,SSW,213,0.0,8.0,100,0.00,,,0.00,Wunderground v.1.15,2015-07-07 11:04:00,
2015-07-07 07:10:00,68.3,68.3,30.04,SSW,213,1.0,1.0,100,0.00,,,0.00,Wunderground v.1.15,2015-07-07 11:10:00,
2015-07-07 07:16:00,68.4,68.4,30.04,SW,215,1.0,8.0,100,0.00,,,0.00,Wunderground v.1.15,2015-07-07 11:16:00,
2015-07-07 07:22:00,68.5,68.5,30.04,SW,223,1.0,8.0,100,0.00,,,0.00,Wunderground v.1.15,2015-07-07 11:22:00,
2015-07-07 07:28:00,68.6,68.6,30.04,WSW,241,0.0,8.0,100,0.00,,,0.00,Wunderground v.1.15,2015-07-07 11:28:00,
2015-07-07 07:34:00,68.8,68.8,30.04,WSW,243,0.0,8.0,100,0.00,,,0.00,Wunderground v.1.15,2015-07-07 11:34:00,
2015-07-07 07:40:00,68.9,68.9,30.04,WSW,254,1.0,1.0,100,0.00,,,0.00,Wunderground v.1.15,2015-07-07 11:40:00,
2015-07-07 07:46:00,69.0,69.0,30.04,West,261,1.0,8.0,100,0.00,,,0.00,Wunderground v.1.15,2015-07-07 11:46:00,
2015-07-07 07:52:00,69.1,69.1,30.04,SW,233,1.0,8.0,100,0.00,,,0.00,Wunderground v.1.15,2015-07-07 11:52:00,
2015-07-07 07:58:00,69.2,69.2,30.04,SW,233,1.0,8.0,100,0.00,,,0.00,Wunderground v.1.15,2015-07-07 11:58:00,
2015-07-07 08:04:00,69.4,69.4,30.03,SW,231,1.0,8.0,100,0.00,,,0.00,Wunderground v.1.15,2015-07-07 12:04:00,
2015-07-07 08:10:00,69.4,69.4,30.03,SW,222,1.0,8.0,100,0.00,,,0.00,Wunderground v.1.15,2015-07-07 12:10:00,
2015-07-07 08:16:00,69.5,69.5,30.03,SW,221,1.0,8.0,100,0.00,,,0.00,Wunderground v.1.15,2015-07-07 12:16:00,
2015-07-07 08:22:00,69.8,69.8,30.03,WSW,258,2.0,8.0,100,0.00,,,0.00,Wunderground v.1.15,2015-07-07 12:22:00,
2015-07-07 08:28:00,69.9,69.6,30.03,WSW,242,2.0,8.0,99,0.00,,,0.00,Wunderground v.1.15,2015-07-07 12:28:00,
2015-07-07 08:34:00,70.0,70.0,30.04,WSW,256,2.0,8.0,100,0.00,,,0.00,Wunderground v.1.15,2015-07-07 12:34:00,
2015-07-07 08:40:00,70.1,69.8,30.04,West,273,2.0,8.0,99,0.00,,,0.00,Wunderground v.1.15,2015-07-07 12:40:00,
2015-07-07 08:46:00,70.3,70.0,30.04,WSW,251,2.0,8.0,99,0.00,,,0.00,Wunderground v.1.15,2015-07-07 12:46:00,
2015-07-07 08:52:00,70.4,70.1,30.04,SW,224,1.0,8.0,99,0.00,,,0.00,Wunderground v.1.15,2015-07-07 12:52:00,
2015-07-07 08:58:00,70.6,70.3,30.03,WSW,244,1.0,8.0,99,0.00,,,0.00,Wunderground v.1.15,2015-07-07 12:58:00,
2015-07-07 09:04:00,70.6,70.3,30.04,West,267,2.0,8.0,99,0.00,,,0.00,Wunderground v.1.15,2015-07-07 13:04:00,
2015-07-07 09:10:00,70.6,70.3,30.04,SW,224,3.0,3.0,99,0.00,,,0.00,Wunderground v.1.15,2015-07-07 13:10:00,
2015-07-07 09:16:00,70.7,70.4,30.03,West,261,3.0,8.0,99,0.00,,,0.00,Wunderground v.1.15,2015-07-07 13:16:00,
2015-07-07 09:22:00,70.8,70.5,30.03,SW,214,2.0,8.0,99,0.00,,,0.00,Wunderground v.1.15,2015-07-07 13:22:00,
2015-07-07 09:28:00,70.7,70.4,30.03,WSW,255,2.0,8.0,99,0.00,,,0.00,Wunderground v.1.15,2015-07-07 13:28:00,
2015-07-07 09:34:00,70.7,70.4,30.03,WSW,251,2.0,8.0,99,0.00,,,0.00,Wunderground v.1.15,2015-07-07 13:34:00,
2015-07-07 09:40:00,70.6,70.3,30.03,WSW,256,2.0,8.0,99,0.00,,,0.00,Wunderground v.1.15,2015-07-07 13:40:00,
2015-07-07 09:46:00,70.6,70.3,30.03,West,277,2.0,8.0,99,0.00,,,0.00,Wunderground v.1.15,2015-07-07 13:46:00,
2015-07-07 09:52:00,70.6,70.3,30.03,West,273,1.0,8.0,99,0.00,,,0.00,Wunderground v.1.15,2015-07-07 13:52:00,
2015-07-07 09:58:00,70.8,70.8,30.03,West,273,1.0,8.0,100,0.00,,,0.00,Wunderground v.1.15,2015-07-07 13:58:00,
2015-07-07 10:04:00,70.8,70.5,30.03,West,273,1.0,8.0,99,0.00,,,0.00,Wunderground v.1.15,2015-07-07 14:04:00,
2015-07-07 10:10:00,71.1,70.8,30.03,WSW,257,1.0,8.0,99,0.00,,,0.00,Wunderground v.1.15,2015-07-07 14:10:00,
2015-07-07 10:16:00,71.6,71.6,30.02,WSW,257,1.0,8.0,100,0.00,,,0.00,Wunderground v.1.15,2015-07-07 14:16:00,
2015-07-07 10:22:00,72.3,72.0,30.02,WSW,252,2.0,8.0,99,0.00,,,0.00,Wunderground v.1.15,2015-07-07 14:22:00,
2015-07-07 10:28:00,72.8,71.9,30.02,SSW,213,2.0,8.0,97,0.00,,,0.00,Wunderground v.1.15,2015-07-07 14:28:00,
2015-07-07 10:34:00,73.2,72.3,30.01,SW,227,2.0,8.0,97,0.00,,,0.00,Wunderground v.1.15,2015-07-07 14:34:00,
2015-07-07 10:40:00,73.6,72.4,30.01,WSW,240,2.0,8.0,96,0.00,,,0.00,Wunderground v.1.15,2015-07-07 14:40:00,
2015-07-07 10:46:00,74.1,72.6,30.01,West,269,2.0,8.0,95,0.00,,,0.00,Wunderground v.1.15,2015-07-07 14:46:00,
2015-07-07 10:52:00,74.2,71.7,30.01,WSW,242,3.0,8.0,92,0.00,,,0.00,Wunderground v.1.15,2015-07-07 14:52:00,
2015-07-07 10:58:00,75.2,73.4,30.01,SSW,200,4.0,8.0,94,0.00,,,0.00,Wunderground v.1.15,2015-07-07 14:58:00,
2015-07-07 11:04:00,75.9,73.4,30.00,WSW,252,3.0,8.0,92,0.00,,,0.00,Wunderground v.1.15,2015-07-07 15:04:00,
2015-07-07 11:10:00,76.3,73.5,30.00,West,259,3.0,8.0,91,0.00,,,0.00,Wunderground v.1.15,2015-07-07 15:10:00,
2015-07-07 11:16:00,76.7,73.9,30.00,WSW,240,3.0,8.0,91,0.00,,,0.00,Wunderground v.1.15,2015-07-07 15:16:00,
2015-07-07 11:22:00,76.5,72.7,30.00,West,261,4.0,5.0,88,0.00,,,0.00,Wunderground v.1.15,2015-07-07 15:22:00,
2015-07-07 11:28:00,77.0,73.2,30.00,WSW,242,6.0,8.0,88,0.00,,,0.00,Wunderground v.1.15,2015-07-07 15:28:00,
2015-07-07 11:34:00,76.9,72.7,30.00,West,260,6.0,9.0,87,0.00,,,0.00,Wunderground v.1.15,2015-07-07 15:34:00,
2015-07-07 11:40:00,76.8,72.6,29.99,West,259,5.0,8.0,87,0.00,,,0.00,Wunderground v.1.15,2015-07-07 15:40:00,
2015-07-07 11:46:00,76.9,73.1,29.99,West,277,4.0,8.0,88,0.00,,,0.00,Wunderground v.1.15,2015-07-07 15:46:00,
2015-07-07 11:52:00,76.8,73.0,29.99,West,265,3.0,8.0,88,0.00,,,0.00,Wunderground v.1.15,2015-07-07 15:52:00,
2015-07-07 11:58:00,77.0,73.2,29.99,West,273,3.0,8.0,88,0.00,,,0.00,Wunderground v.1.15,2015-07-07 15:58:00,
2015-07-07 12:04:00,77.1,73.3,29.98,West,265,3.0,8.0,88,0.00,,,0.00,Wunderground v.1.15,2015-07-07 16:04:00,
2015-07-07 12:10:00,76.7,72.9,29.99,West,268,3.0,8.0,88,0.00,,,0.00,Wunderground v.1.15,2015-07-07 16:10:00,
2015-07-07 12:16:00,76.6,73.1,29.98,SW,223,4.0,8.0,89,0.00,,,0.00,Wunderground v.1.15,2015-07-07 16:16:00,
2015-07-07 12:18:00,76.5,72.7,29.98,West,260,4.0,8.0,88,0.00,,,0.00,Wunderground v.1.15,2015-07-07 16:18:00,
2015-07-07 12:24:00,76.5,73.7,29.98,SW,232,4.0,8.0,91,0.00,,,0.00,Wunderground v.1.15,2015-07-07 16:24:00,
2015-07-07 12:26:00,76.6,73.4,29.98,WSW,257,4.0,8.0,90,0.00,,,0.00,Wunderground v.1.15,2015-07-07 16:26:00,
2015-07-07 12:32:00,76.9,73.7,29.98,WSW,242,4.0,8.0,90,0.00,,,0.00,Wunderground v.1.15,2015-07-07 16:32:00,
2015-07-07 12:38:00,77.3,73.8,29.98,WSW,244,3.0,8.0,89,0.00,,,0.00,Wunderground v.1.15,2015-07-07 16:38:00,
2015-07-07 12:44:00,77.6,73.4,29.97,WNW,284,5.0,8.0,87,0.00,,,0.00,Wunderground v.1.15,2015-07-07 16:44:00,
2015-07-07 12:50:00,77.9,73.4,29.97,West,273,5.0,8.0,86,0.00,,,0.00,Wunderground v.1.15,2015-07-07 16:50:00,
2015-07-07 12:56:00,77.5,73.0,29.97,West,266,5.0,8.0,86,0.00,,,0.00,Wunderground v.1.15,2015-07-07 16:56:00,
2015-07-07 12:58:00,77.4,73.2,29.97,West,281,5.0,8.0,87,0.00,,,0.00,Wunderground v.1.15,2015-07-07 16:58:00,
2015-07-07 13:04:00,77.9,74.1,29.96,WNW,283,3.0,8.0,88,0.00,,,0.00,Wunderground v.1.15,2015-07-07 17:04:00,
2015-07-07 13:10:00,79.0,73.7,29.96,WSW,240,3.0,8.0,84,0.00,,,0.00,Wunderground v.1.15,2015-07-07 17:10:00,
2015-07-07 13:16:00,79.6,74.7,29.96,West,274,4.0,8.0,85,0.00,,,0.00,Wunderground v.1.15,2015-07-07 17:16:00,
2015-07-07 13:20:00,79.6,74.3,29.96,SW,224,3.0,8.0,84,0.00,,,0.00,Wunderground v.1.15,2015-07-07 17:20:00,
2015-07-07 13:32:00,79.3,74.4,29.95,NW,311,2.0,8.0,85,0.00,,,0.00,Wunderground v.1.15,2015-07-07 17:32:00,
2015-07-07 13:38:00,80.0,75.1,29.95,West,263,3.0,8.0,85,0.00,,,0.00,Wunderground v.1.15,2015-07-07 17:38:00,
2015-07-07 13:44:00,80.1,74.1,29.95,NW,319,5.0,11.0,82,0.00,,,0.00,Wunderground v.1.15,2015-07-07 17:44:00,
2015-07-07 13:50:00,80.1,74.1,29.95,WNW,286,4.0,4.0,82,0.00,,,0.00,Wunderground v.1.15,2015-07-07 17:50:00,
2015-07-07 13:56:00,79.8,74.2,29.95,WSW,250,4.0,8.0,83,0.00,,,0.00,Wunderground v.1.15,2015-07-07 17:56:00,
2015-07-07 14:02:00,79.7,74.4,29.94,SW,234,3.0,5.0,84,0.00,,,0.00,Wunderground v.1.15,2015-07-07 18:02:00,
2015-07-07 14:08:00,79.4,74.1,29.94,West,271,2.0,9.0,84,0.00,,,0.00,Wunderground v.1.15,2015-07-07 18:08:00,
2015-07-07 14:14:00,79.3,74.0,29.94,WSW,243,3.0,8.0,84,0.00,,,0.00,Wunderground v.1.15,2015-07-07 18:14:00,
2015-07-07 14:20:00,79.7,74.4,29.94,West,281,5.0,5.0,84,0.00,,,0.00,Wunderground v.1.15,2015-07-07 18:20:00,
2015-07-07 14:26:00,80.4,75.5,29.94,NW,308,5.0,8.0,85,0.00,,,0.00,Wunderground v.1.15,2015-07-07 18:26:00,
2015-07-07 14:32:00,81.0,75.3,29.93,WSW,248,4.0,8.0,83,0.00,,,0.00,Wunderground v.1.15,2015-07-07 18:32:00,
2015-07-07 14:38:00,80.5,74.9,29.94,West,261,4.0,8.0,83,0.00,,,0.00,Wunderground v.1.15,2015-07-07 18:38:00,